ECMWFFLT1_925_spd_024.txt.gz
Wind_Speed
16 17 17 16 17 18 18 18 20 22 24 25 26 27 28 27 27 25 24 26 27 26 26 26 26 26 26 26 26 26 26 24 23 22 21 21 20 18 17 16 15 15 14 13 13 14 14 14 14 13 11 10 10 10 9 8 8 7 6 5 5 4 4
15 15 16 17 17 18 19 19 22 23 24 25 25 27 28 27 27 27 26 26 27 27 27 27 27 28 27 26 26 26 26 25 23 21 20 20 20 18 18 17 15 14 14 14 13 13 14 15 14 13 12 11 11 10 10 9 8 8 7 6 6 6 5
14 15 16 17 16 17 19 19 21 24 25 25 26 27 28 28 29 29 27 26 27 27 27 27 29 29 27 26 25 26 27 25 23 22 21 20 20 19 18 17 16 15 15 15 15 14 15 15 14 13 13 12 11 11 10 10 10 9 8 7 7 7 6
14 15 16 17 17 17 18 18 20 24 26 26 27 28 29 29 29 29 28 27 27 28 28 28 29 29 27 26 26 25 25 25 24 23 22 21 20 19 18 18 18 17 16 16 16 15 14 14 14 14 13 12 11 11 11 11 11 10 8 8 8 7 7
15 15 15 16 16 15 16 17 20 24 26 27 28 28 29 30 28 27 27 28 28 30 31 30 28 27 27 26 26 24 24 25 24 23 22 21 20 20 20 20 19 18 17 16 16 15 15 15 15 14 14 12 11 10 11 12 11 9 9 9 8 8 7
13 14 15 15 16 16 17 18 21 25 27 27 28 28 28 28 28 28 28 28 28 29 30 30 28 27 27 27 26 23 22 24 24 24 23 22 22 22 23 21 20 19 18 17 18 17 17 16 15 15 15 14 13 11 12 12 11 11 10 10 10 10 9
12 14 14 15 15 16 17 17 20 25 27 27 27 27 27 27 28 28 28 27 29 29 29 30 30 29 27 27 26 24 23 24 25 25 24 23 24 24 23 22 23 24 21 20 21 20 18 17 17 17 17 17 17 17 16 15 15 14 13 12 12 11 10
11 12 14 14 15 15 16 16 17 21 24 25 25 26 26 26 26 27 27 27 28 29 29 30 30 28 27 25 25 24 25 25 25 25 24 24 24 24 24 25 27 27 23 21 21 20 19 19 20 21 21 21 20 21 22 20 18 17 15 14 14 13 11
10 11 12 13 14 14 14 14 15 19 22 24 24 24 25 25 25 26 27 27 27 28 30 30 29 27 26 24 24 25 25 24 24 25 25 25 25 26 26 24 25 27 26 22 21 22 24 23 24 25 25 22 21 24 25 23 20 18 17 17 16 14 13
8 10 11 12 13 12 12 13 15 16 18 20 22 22 24 24 24 24 25 26 26 28 30 29 27 26 25 24 25 25 25 24 25 25 26 26 26 28 28 24 23 27 28 23 22 26 28 26 26 28 27 24 24 26 27 24 23 21 19 18 17 16 14
7 8 9 11 12 12 13 14 14 14 15 18 21 22 22 23 24 24 24 26 26 27 28 27 26 25 24 24 25 25 25 26 26 26 28 28 26 27 29 26 24 27 28 26 25 28 29 28 28 30 29 28 27 28 28 26 25 24 20 18 18 17 16
7 8 9 11 12 13 13 13 14 14 14 17 21 21 22 23 23 24 24 25 26 25 25 25 25 25 24 23 24 25 26 27 27 27 29 28 26 26 28 27 26 27 29 28 28 29 30 30 32 33 32 31 30 29 29 27 26 25 22 18 18 19 19
7 7 9 11 12 12 13 13 15 15 16 18 21 21 22 23 23 23 23 25 26 24 22 22 23 24 23 22 23 24 26 27 27 27 27 26 26 26 28 28 27 27 28 28 29 31 30 30 34 35 34 34 32 31 30 28 26 25 22 20 20 21 20
8 9 10 11 12 14 15 15 15 16 16 18 21 22 21 22 23 23 23 23 24 23 21 20 21 22 22 21 21 22 23 25 25 24 23 22 23 24 27 27 25 24 26 29 32 33 32 35 39 38 37 36 33 31 30 29 27 25 24 23 22 20 18
9 10 12 14 15 15 15 15 15 16 16 18 20 22 22 22 22 22 22 21 21 21 20 19 19 20 21 20 20 20 20 21 21 20 20 21 21 24 25 24 25 25 29 34 36 35 35 38 40 38 38 37 33 31 31 30 29 28 25 23 20 18 18
10 11 13 15 15 15 16 15 15 16 16 17 20 22 22 22 22 23 22 21 20 20 20 19 19 19 20 20 20 19 18 19 20 20 22 22 23 24 24 25 29 31 35 39 40 40 40 40 40 39 37 33 29 29 30 29 29 28 25 23 19 17 17
11 12 13 14 15 15 15 15 15 16 17 18 20 23 23 22 22 22 21 20 20 20 20 19 18 18 19 19 18 18 18 19 19 20 22 23 24 24 24 27 33 36 37 40 43 43 41 41 39 33 28 26 26 27 28 29 28 26 26 26 23 19 18
12 13 14 14 14 15 16 17 18 18 19 19 22 23 23 21 21 20 20 20 20 19 19 19 18 17 18 17 17 17 18 19 18 18 21 23 24 24 24 28 36 39 39 40 43 44 41 38 34 27 24 25 24 24 25 27 26 24 26 27 24 21 21
12 12 13 14 14 15 17 17 17 18 18 20 22 24 23 22 21 20 21 20 19 19 18 19 18 17 17 17 16 16 18 19 18 18 20 22 22 22 23 27 35 41 37 30 33 41 41 33 27 25 26 24 20 19 19 20 22 25 27 26 22 21 21
10 10 11 12 13 14 15 14 14 16 19 20 22 22 21 21 19 18 18 18 18 18 18 18 17 17 16 15 15 16 17 18 17 18 19 20 20 21 22 25 32 40 37 26 25 33 34 27 21 22 23 22 20 20 18 16 18 24 26 25 22 20 21
9 10 10 11 12 13 14 14 14 15 18 19 20 20 20 19 18 17 17 17 17 18 18 17 16 15 14 15 15 15 16 16 16 16 16 19 22 22 22 24 28 33 33 27 24 24 23 20 19 19 20 20 19 19 19 18 20 23 24 23 22 21 22
10 11 11 11 12 12 13 14 15 16 18 19 19 19 18 18 18 17 17 17 17 16 16 15 15 14 14 14 14 14 14 14 15 15 16 20 23 22 21 23 24 26 25 24 24 22 17 16 17 18 17 18 18 18 19 20 21 22 22 22 22 22 23
10 11 12 12 13 14 15 16 16 16 17 19 20 19 18 18 18 17 16 16 15 14 14 14 13 13 13 13 13 13 13 13 14 14 16 19 23 23 20 21 23 24 23 24 26 23 18 17 17 17 17 17 18 20 21 21 20 19 20 20 21 22 22
8 10 12 12 13 15 18 19 19 18 18 18 19 18 18 18 18 16 15 14 14 13 14 13 12 12 12 12 12 12 12 12 13 14 15 18 22 23 20 21 23 23 22 24 25 22 19 19 17 17 18 20 22 23 23 22 19 18 19 19 20 22 21
9 10 12 13 15 15 17 20 20 20 19 18 18 18 19 19 18 16 14 14 14 14 13 12 12 12 11 11 12 12 11 11 12 14 15 17 21 23 21 21 24 22 20 22 22 19 19 19 18 19 21 23 24 23 22 20 17 16 17 18 20 21 19
10 11 12 14 16 17 18 20 21 21 20 18 18 19 20 19 17 15 14 14 14 13 13 12 12 11 11 11 12 12 11 10 11 13 14 14 18 21 20 19 21 20 20 21 20 18 18 19 19 20 21 20 20 20 19 18 16 15 17 18 18 18 17
10 11 12 14 16 17 18 19 19 19 18 18 18 19 19 18 17 15 15 15 14 14 14 14 13 13 12 12 12 11 11 11 11 12 13 13 15 18 18 17 18 19 19 19 20 19 18 18 18 19 18 17 16 16 15 15 14 14 16 18 17 16 17
12 12 14 16 15 15 16 16 17 18 17 17 18 17 17 18 17 16 15 15 14 14 15 15 15 14 14 13 12 11 11 11 11 12 13 12 13 16 16 16 18 19 18 18 18 18 17 17 16 15 14 14 13 12 11 12 13 14 15 16 17 18 20
13 14 15 16 15 15 16 16 16 17 17 16 16 15 16 17 16 15 14 15 15 14 15 15 15 15 14 13 12 11 11 11 11 12 12 12 14 17 17 15 17 18 17 16 15 16 16 16 15 14 13 11 10 10 10 10 11 14 17 18 17 19 21
14 14 15 16 17 18 18 16 16 16 15 14 14 13 13 14 15 15 15 15 14 14 15 15 14 15 14 12 12 11 11 11 11 12 12 12 14 17 18 16 16 16 15 15 14 15 15 15 14 13 11 8 8 8 9 8 8 12 16 17 16 17 20
15 15 16 16 17 18 18 17 17 16 14 13 12 12 12 12 14 16 16 14 14 14 14 14 14 14 13 11 11 10 10 10 11 12 12 12 14 17 17 17 16 15 14 14 14 15 15 13 13 11 8 7 8 8 8 8 9 10 12 14 14 15 17
14 14 15 15 15 15 17 18 18 17 16 13 11 11 12 12 13 15 15 14 14 13 13 14 13 12 11 10 10 10 10 10 11 12 13 12 13 15 15 16 16 15 14 14 14 15 14 12 11 10 8 6 8 8 7 7 8 8 9 12 16 16 16
14 14 14 13 12 13 14 14 14 15 16 14 12 11 12 12 13 14 15 14 14 13 14 13 13 11 10 9 9 10 10 10 10 11 12 12 12 13 14 15 15 14 13 13 15 15 13 11 9 9 7 6 7 8 8 8 9 8 8 11 14 15 14
14 13 14 14 13 13 13 12 12 13 13 13 12 11 11 12 12 13 13 13 13 14 14 13 12 11 10 9 9 10 10 10 10 10 10 11 10 10 11 12 13 12 11 12 13 12 11 9 8 8 7 5 6 9 10 10 11 11 10 10 11 11 12
13 13 14 14 14 14 14 13 12 12 12 12 11 11 11 11 11 12 12 12 12 13 13 13 12 11 10 9 9 10 10 10 10 10 10 10 8 8 9 10 11 11 10 9 9 10 9 8 7 6 6 5 7 11 13 13 14 13 13 12 13 13 12
13 13 14 14 14 14 14 13 12 12 12 10 9 9 10 10 10 10 10 11 11 11 12 13 11 10 10 10 9 10 10 10 10 11 10 10 10 9 9 9 10 11 10 9 10 12 12 11 8 6 5 5 7 11 12 11 12 14 15 16 17 17 16
12 12 13 13 13 13 13 12 11 11 10 9 8 8 9 9 9 9 9 9 9 9 11 11 10 9 10 9 9 11 11 10 11 11 10 9 9 10 9 8 9 11 11 12 14 14 14 13 11 9 9 7 5 8 10 8 8 10 12 15 18 19 18
14 13 12 12 12 11 11 10 10 9 9 8 7 8 8 8 8 7 7 8 8 8 9 9 8 9 9 8 9 11 11 10 10 11 10 9 9 9 9 8 8 8 9 11 12 13 12 11 10 11 14 12 7 7 9 8 7 8 10 13 16 17 16

ECMWFFLT1_925_spd_027.txt.gz
Wind_Speed
16 14 15 16 18 19 20 21 21 23 27 29 30 32 32 31 30 29 28 29 30 29 29 29 28 27 27 27 26 25 24 23 22 21 20 20 19 18 17 16 16 15 14 13 12 13 13 12 12 13 12 11 10 10 10 10 10 10 8 7 6 5 5
15 16 18 19 19 20 21 21 21 25 28 30 31 32 32 31 31 30 29 30 31 30 30 29 29 28 27 27 26 25 25 24 23 22 21 20 20 19 18 17 16 15 15 15 14 14 14 14 14 14 14 13 12 12 13 13 13 13 12 10 9 8 7
14 16 18 19 19 19 20 21 22 26 29 30 31 32 32 32 33 33 31 30 31 30 29 29 29 28 27 26 25 25 25 25 24 23 22 21 21 20 19 18 17 16 16 16 15 15 15 16 16 16 15 14 14 14 15 15 16 16 15 14 12 11 9
13 16 18 19 19 18 19 21 21 25 29 31 32 32 33 34 33 33 32 30 31 31 30 30 30 28 27 26 25 25 25 25 24 24 23 22 21 21 20 19 18 18 17 17 16 16 16 17 17 17 17 16 15 16 16 16 16 17 16 15 15 13 12
12 13 15 16 18 17 18 19 21 25 29 31 33 33 33 34 33 32 32 31 31 31 32 30 28 27 27 26 25 24 25 26 25 24 23 22 22 22 21 21 20 20 19 18 18 17 18 18 18 18 18 18 17 18 19 18 17 17 17 15 15 15 13
11 10 12 14 16 17 19 21 23 28 31 32 33 33 33 34 33 32 32 31 31 31 30 30 28 27 27 27 25 24 24 25 25 25 24 23 23 23 23 23 22 21 20 20 19 20 20 20 19 19 19 19 19 19 20 20 19 18 18 16 15 15 15
12 12 14 15 16 17 19 20 23 28 31 31 32 32 33 33 33 33 32 31 32 31 30 30 30 29 28 27 26 25 25 25 25 25 25 24 24 24 23 23 23 22 21 21 22 22 23 23 22 22 22 21 20 20 20 20 20 19 19 18 17 17 17
14 13 14 15 15 16 17 18 20 24 28 29 30 31 32 33 32 32 32 31 31 31 30 30 30 30 28 27 27 26 26 26 26 26 26 25 25 25 24 23 23 23 23 24 25 25 26 26 25 25 25 23 22 22 21 20 21 20 19 19 19 18 18
12 12 13 14 15 15 15 16 17 20 24 27 28 30 32 32 31 32 32 31 30 31 31 31 30 30 28 27 27 27 27 26 26 26 27 27 26 26 25 24 25 26 26 26 26 26 27 27 27 27 27 25 24 24 22 21 21 21 20 20 21 19 18
8 10 12 13 13 12 13 15 15 16 18 20 23 27 30 30 30 31 31 31 30 31 31 31 30 29 28 27 27 28 28 27 27 27 27 27 26 26 26 25 26 27 28 26 26 27 27 27 28 29 29 27 25 25 24 23 23 22 21 21 21 21 19
5 7 10 12 12 12 13 14 14 13 13 15 20 25 27 28 29 30 30 31 30 30 30 30 29 28 28 27 27 28 28 28 28 27 28 28 27 26 27 27 27 27 27 27 27 27 28 28 29 30 30 28 26 26 26 25 25 24 23 21 21 21 20
7 7 10 12 12 12 13 12 13 13 13 15 21 24 25 26 28 28 29 30 30 28 29 29 29 28 28 27 27 28 28 28 28 28 28 28 27 26 27 28 27 26 27 28 28 28 28 30 31 31 31 29 27 26 26 25 25 24 23 21 21 21 21
9 9 9 11 12 12 12 11 13 15 14 17 21 23 24 26 27 27 28 29 28 27 27 28 28 27 27 27 26 26 27 28 28 28 28 27 26 25 27 29 28 27 27 28 29 29 30 31 31 31 31 31 29 27 26 25 24 23 22 22 22 21 22
13 13 12 13 13 13 13 13 14 15 15 17 21 23 24 25 26 26 26 27 27 26 26 26 26 26 26 26 25 25 26 27 26 25 24 25 25 25 26 28 28 27 27 28 30 31 31 31 32 31 31 31 30 28 25 25 24 23 23 23 22 21 22
15 14 14 15 14 14 14 14 15 16 16 17 20 22 23 24 25 25 24 25 25 25 25 24 25 25 25 24 24 24 25 25 24 23 23 24 24 25 25 26 26 26 27 29 30 31 31 31 31 31 30 28 28 26 24 24 24 24 26 25 23 22 21
14 12 13 13 14 14 14 15 16 16 17 17 18 22 23 23 24 25 24 24 24 24 24 23 24 25 25 24 24 23 23 23 23 23 24 24 25 26 26 25 24 25 27 28 28 28 28 28 28 27 27 26 26 25 24 23 24 26 29 28 25 22 20
14 13 12 11 13 14 14 15 16 17 18 19 20 23 23 23 23 24 24 24 24 25 24 24 24 25 25 24 23 22 22 23 23 23 23 24 24 25 25 26 25 25 27 27 26 24 23 23 23 23 23 24 25 25 24 23 24 28 32 31 27 23 18
13 13 12 10 10 12 15 16 17 19 20 20 22 25 24 23 23 24 23 24 24 25 25 24 24 24 23 23 22 21 22 22 21 22 21 22 23 21 22 25 24 22 22 23 22 21 20 20 21 21 21 22 24 24 23 22 24 28 31 31 30 25 20
14 15 13 9 9 12 16 17 18 20 20 20 24 27 26 24 24 23 24 24 24 24 24 24 23 23 22 22 21 21 21 21 20 21 20 20 20 20 21 23 21 19 19 20 20 20 19 18 20 20 20 21 23 24 23 22 23 25 27 30 30 27 24
17 18 16 10 10 14 16 16 16 18 20 22 25 26 25 23 22 22 23 24 24 24 24 23 22 22 21 21 21 21 21 20 20 20 20 20 19 19 21 22 20 20 22 23 22 20 19 19 19 20 21 22 23 23 21 20 22 24 26 29 29 26 25
18 19 17 11 12 15 15 16 15 16 20 23 25 25 24 23 22 22 23 24 24 24 24 23 22 21 21 21 21 21 21 21 21 20 20 20 19 18 20 22 21 21 23 24 20 18 19 19 19 20 21 22 23 22 20 18 21 24 27 29 28 24 22
19 20 18 13 12 13 14 16 17 18 20 23 25 25 24 24 23 23 23 23 24 23 23 23 21 20 21 21 21 21 20 21 21 20 20 20 19 18 19 20 19 19 20 20 17 16 17 15 16 20 21 21 21 20 18 17 19 22 25 27 27 24 21
22 22 18 13 13 14 16 18 19 20 22 24 25 25 24 24 23 24 23 23 23 22 22 22 21 20 20 20 20 21 20 20 20 19 19 19 19 19 18 18 18 17 16 18 17 16 16 13 15 20 22 23 23 21 19 20 21 22 23 25 25 23 22
19 19 15 13 14 15 18 20 21 23 25 25 25 25 25 24 24 24 23 23 23 22 22 20 20 20 19 19 20 20 20 20 19 18 19 19 19 18 17 17 17 15 15 17 18 17 17 14 13 17 21 24 24 23 22 22 22 22 22 22 21 21 22
18 17 13 13 15 16 18 21 22 24 26 25 25 26 27 26 25 24 22 22 22 22 20 19 19 19 19 19 20 19 19 19 19 18 19 19 18 18 17 16 15 14 15 17 17 16 16 15 13 15 18 20 21 23 23 22 21 21 21 20 19 21 23
15 14 12 13 16 17 19 21 21 22 23 25 25 27 28 26 24 23 21 21 21 20 19 19 18 18 18 18 18 18 17 17 18 17 17 18 17 17 17 15 14 15 16 15 15 14 14 15 15 16 17 17 18 20 21 22 22 23 23 23 22 23 24
9 10 11 13 15 18 19 20 20 19 20 22 24 26 26 25 22 21 20 20 19 18 18 19 18 18 18 17 16 16 16 15 16 16 15 16 17 16 16 15 15 17 16 12 12 14 14 15 16 16 16 17 18 19 21 23 24 23 24 26 25 24 23
9 9 10 13 17 18 18 18 18 19 19 21 23 24 24 23 21 21 20 19 18 19 19 19 18 18 17 16 15 15 14 14 15 14 14 15 16 16 16 15 15 17 16 12 12 14 14 14 15 14 14 15 17 17 16 17 18 18 21 24 23 21 22
9 10 11 14 16 18 17 16 18 20 21 21 22 22 22 22 22 22 21 21 20 21 21 20 19 18 17 16 15 14 14 14 14 13 13 15 16 17 16 15 15 17 17 14 13 14 14 13 14 14 14 14 14 12 8 7 10 14 16 19 19 18 19
10 11 12 13 15 18 18 17 18 20 21 22 22 22 22 23 23 22 22 21 21 21 21 20 20 20 18 16 15 14 13 13 13 13 13 15 17 17 17 16 16 17 17 16 15 14 14 14 14 15 14 11 9 8 7 7 9 12 13 15 16 16 16
11 11 13 14 16 20 21 20 21 21 21 22 23 22 22 22 23 23 21 20 20 21 21 20 19 19 19 17 16 14 12 13 13 13 14 15 16 17 17 17 18 18 17 17 15 15 15 14 14 14 13 9 7 7 9 9 10 11 11 13 14 13 14
12 14 15 16 18 21 23 24 23 22 22 23 23 22 21 21 22 22 20 19 20 20 20 20 19 19 19 17 16 14 13 13 14 14 14 15 16 17 17 17 17 17 16 15 15 15 14 14 14 13 11 9 8 8 9 9 10 8 8 11 14 15 15
14 14 15 16 19 22 23 21 19 19 21 22 22 22 21 20 20 21 21 20 20 20 20 21 20 19 18 17 15 14 14 15 15 15 14 15 16 17 16 16 16 15 14 14 14 13 13 13 12 11 11 9 9 10 8 8 9 8 7 10 14 16 18
15 16 16 18 20 21 21 19 17 19 20 20 20 21 21 20 20 20 20 19 20 20 21 21 21 20 19 17 15 14 14 14 15 15 15 14 13 13 14 14 14 14 13 12 10 10 12 11 8 7 9 10 10 10 9 7 9 10 10 12 14 16 19
16 17 17 19 21 21 21 19 19 20 20 19 19 20 20 20 19 19 19 18 19 19 19 19 19 19 18 18 16 14 14 13 14 15 14 12 10 11 12 11 12 12 10 7 5 5 9 10 7 5 7 8 9 11 10 8 10 12 12 13 15 16 18
15 16 17 20 21 21 21 20 20 20 19 18 19 19 19 19 19 18 18 18 18 17 17 17 17 17 17 16 16 15 15 14 14 14 13 12 11 11 12 11 10 10 8 6 5 5 6 9 8 6 6 7 10 13 12 9 11 13 12 13 17 17 16
14 15 16 19 19 18 19 19 18 19 18 17 17 18 18 17 17 16 16 16 16 16 16 16 16 16 15 14 15 15 15 14 13 14 13 11 10 11 12 11 9 8 7 7 7 7 7 8 9 7 6 6 9 12 11 9 10 13 13 15 17 16 15
18 17 17 18 17 16 17 16 16 16 16 15 16 16 16 16 16 15 15 15 15 14 14 14 14 13 13 14 15 15 13 12 13 14 13 11 11 11 11 10 8 7 6 6 7 7 7 8 8 7 6 6 8 11 13 11 12 14 14 13 13 14 13

ECMWFFLT1_925_spd_030.txt.gz
Wind_Speed
17 17 15 13 14 16 16 17 17 19 23 26 29 32 32 32 32 31 31 33 34 34 34 34 33 34 34 32 31 30 29 28 27 27 25 23 22 22 22 21 21 21 20 20 20 20 20 18 19 19 18 17 15 14 15 16 16 16 14 14 14 13 13
17 16 16 15 15 17 17 16 17 20 23 25 28 31 32 32 33 33 32 34 35 35 35 35 35 35 34 33 31 31 30 29 28 27 26 25 24 23 23 22 22 21 21 21 20 21 21 20 20 21 21 20 18 17 18 18 19 17 16 16 15 14 14
17 15 16 15 14 15 16 16 17 21 25 26 28 31 33 34 35 35 34 34 35 35 35 35 36 35 35 33 32 31 32 30 29 29 27 26 25 24 23 23 23 23 22 21 21 22 23 22 22 22 22 22 21 21 21 20 20 19 17 17 16 15 16
18 17 17 15 14 13 13 15 15 20 27 29 31 33 35 36 36 36 35 35 35 35 35 36 36 36 35 34 33 32 32 32 30 30 28 27 26 25 24 24 24 24 24 23 23 23 24 24 24 23 23 23 23 23 22 21 21 21 19 18 18 17 16
19 19 17 14 13 12 12 14 15 19 26 30 32 34 35 36 36 35 35 35 35 36 37 36 35 35 35 34 33 32 33 33 32 31 29 28 27 27 27 26 25 25 25 25 25 25 25 25 26 25 25 25 24 23 23 22 21 22 21 19 19 18 17
19 18 16 14 14 14 14 16 18 22 27 30 31 32 34 35 36 36 35 35 35 35 36 35 34 34 34 34 34 32 32 33 33 32 30 29 29 29 28 28 27 27 27 27 27 27 27 27 27 28 27 26 25 24 24 24 23 23 23 21 20 20 18
17 15 14 14 13 14 16 16 16 22 27 29 30 31 33 35 36 37 35 34 35 35 35 35 34 34 35 35 34 33 33 33 34 33 31 30 30 30 30 29 29 29 29 29 29 29 29 29 29 29 29 27 26 25 26 26 25 24 25 24 22 21 20
14 15 13 14 14 14 14 12 12 16 21 26 28 30 33 35 35 36 36 35 35 35 35 36 35 35 35 35 34 34 33 33 34 33 32 31 31 31 31 31 31 31 29 29 30 31 31 31 31 31 31 30 29 28 28 28 27 26 26 26 24 23 22
16 16 14 14 14 13 13 12 13 15 19 24 27 29 32 33 34 36 36 36 36 35 35 35 34 34 35 35 34 34 34 33 33 33 33 32 32 32 31 31 31 31 30 30 30 31 32 33 34 34 34 33 32 31 30 30 30 28 27 28 27 26 25
15 15 14 15 15 14 13 13 13 15 17 21 24 26 29 31 31 33 35 35 35 36 36 35 33 33 34 34 33 34 34 33 33 33 33 32 33 33 31 30 30 31 31 31 30 31 33 34 34 35 35 35 34 33 33 32 32 30 29 29 29 28 27
15 14 13 16 16 15 14 13 14 14 15 17 21 24 27 30 30 31 34 35 35 35 36 35 33 32 33 34 33 34 35 35 33 33 33 33 32 32 31 29 28 30 32 32 31 32 34 35 35 35 36 37 36 36 35 34 34 33 31 30 29 29 28
15 13 13 15 15 15 14 12 13 15 14 15 21 24 26 30 30 30 32 34 34 34 34 35 34 33 33 33 33 35 36 36 34 33 34 34 32 31 31 30 29 30 31 32 31 32 33 35 36 36 37 37 37 37 37 36 36 35 33 31 30 29 28
11 12 12 13 13 13 13 12 13 15 14 16 21 25 26 28 30 29 30 32 33 33 34 34 34 34 33 33 33 35 36 36 36 34 34 34 34 31 30 30 30 30 31 32 32 31 31 34 36 36 37 37 37 37 37 36 35 35 34 31 30 29 29
11 12 11 11 10 11 11 11 12 14 13 15 20 23 24 27 30 29 29 31 32 32 33 34 34 34 34 33 32 33 35 36 36 35 34 34 34 33 31 30 31 30 31 32 31 30 30 31 33 35 36 37 37 37 37 36 34 34 34 31 29 29 29
10 12 12 11 11 11 10 9 10 12 12 13 17 20 22 25 28 28 27 30 32 31 31 34 34 34 34 33 32 32 35 35 35 35 34 33 33 33 32 30 30 30 30 31 31 30 28 28 29 31 33 34 35 34 33 33 33 33 32 31 29 29 29
11 10 11 11 10 10 9 10 11 12 12 13 14 18 20 22 26 27 27 28 31 31 31 34 34 33 33 33 32 32 33 33 33 32 32 32 32 32 32 30 28 28 28 29 30 30 27 26 27 27 28 29 32 32 30 30 31 31 32 32 32 31 29
16 14 13 13 12 11 10 10 11 12 13 14 15 18 21 22 24 26 26 27 30 31 30 33 35 33 32 33 32 32 33 32 31 31 31 30 30 30 30 28 26 26 26 25 27 28 27 26 26 27 26 26 28 29 28 29 31 33 34 35 35 33 29
15 14 16 15 13 13 13 12 13 14 15 15 16 20 22 22 23 26 27 28 30 30 29 32 34 33 32 32 32 32 32 32 30 29 29 29 28 28 27 26 24 23 23 23 23 26 26 25 25 27 27 26 26 27 28 29 31 33 35 36 35 32 28
14 12 14 16 15 15 16 15 15 16 16 16 19 23 26 25 24 26 27 28 30 30 28 30 33 33 31 31 32 32 32 31 29 28 28 28 27 25 25 25 24 22 22 22 21 23 25 24 23 24 26 27 27 27 27 27 28 31 34 35 35 32 27
13 13 12 14 16 16 15 14 14 15 17 21 24 27 28 27 25 26 27 27 28 29 27 28 31 31 30 30 30 31 31 30 28 27 26 26 25 25 24 24 24 22 21 20 19 20 22 23 21 20 23 26 27 27 26 26 28 31 32 34 35 32 27
11 12 10 10 14 17 16 15 15 15 17 23 27 26 26 26 26 26 26 26 28 29 26 27 29 29 29 30 29 30 30 29 27 26 25 25 25 24 23 22 22 21 19 17 16 17 20 21 20 19 20 23 25 26 25 25 27 30 31 33 34 33 29
12 12 10 7 10 14 16 16 17 18 20 23 25 25 25 27 27 26 26 27 29 28 25 27 28 28 29 29 28 29 29 28 27 25 25 25 24 22 21 20 20 19 18 18 16 15 16 19 20 19 19 20 22 24 24 23 24 27 31 33 33 33 32
17 15 13 11 10 11 18 22 22 23 24 25 26 27 27 27 28 27 26 27 28 27 26 26 26 27 28 28 27 28 28 27 26 24 24 23 22 20 19 18 17 17 18 19 17 13 12 16 19 19 18 19 20 21 22 22 22 26 30 31 30 30 30
20 20 17 14 14 12 17 24 25 26 28 27 27 28 29 29 29 27 25 27 28 27 26 25 25 26 26 26 26 26 26 25 24 23 23 22 20 19 18 17 16 16 17 17 16 13 13 16 17 16 16 16 18 21 21 21 23 27 29 28 26 26 27
21 23 19 17 20 17 16 23 26 26 27 26 25 29 31 31 29 27 25 26 27 26 25 25 26 26 26 26 26 25 25 25 24 23 23 22 20 19 19 17 16 15 14 14 12 11 13 16 15 13 13 15 19 22 21 20 23 25 25 24 24 23 25
16 18 18 19 21 16 17 22 22 20 21 22 25 30 32 31 28 25 24 26 27 26 25 26 27 26 27 27 26 26 25 25 24 24 23 22 21 20 19 18 16 14 13 12 10 10 12 15 15 14 13 15 19 23 24 22 22 23 23 23 23 23 25
7 8 13 15 9 10 15 16 16 17 18 22 25 28 30 29 25 22 23 25 25 25 26 28 28 27 28 28 27 26 25 24 24 23 22 22 21 20 19 18 16 15 14 11 10 10 11 13 13 13 14 14 15 19 23 23 22 23 25 25 24 23 25
8 12 10 6 13 18 14 11 13 15 16 20 24 26 28 28 24 22 23 23 23 26 29 30 30 29 29 28 27 26 24 24 24 23 21 21 21 20 18 17 16 15 14 11 10 11 11 12 13 12 13 14 15 17 20 22 22 23 24 25 25 25 26
6 8 6 3 12 16 14 11 11 13 17 20 24 25 26 25 22 22 22 21 23 29 31 31 31 30 29 28 27 26 25 25 24 22 21 22 22 20 18 17 16 17 16 13 11 11 12 14 14 13 13 16 17 17 17 18 21 23 23 23 25 25 25
3 10 9 6 7 11 12 11 11 14 18 21 23 24 24 24 22 21 19 21 27 31 32 32 32 31 29 28 26 25 25 25 24 23 23 24 23 21 19 17 17 17 17 14 11 11 13 15 15 15 16 16 15 15 14 14 18 22 22 21 23 24 24
2 7 10 9 9 11 12 12 13 14 16 18 21 22 23 24 25 21 19 24 29 32 32 32 31 30 29 27 26 26 26 24 23 23 24 24 24 23 21 19 17 17 16 13 13 13 14 15 16 16 15 14 13 13 13 12 14 18 20 20 21 22 23
3 4 9 10 9 12 14 15 15 14 14 17 20 21 20 24 26 24 23 27 30 31 31 31 30 29 27 26 26 26 26 23 22 22 23 23 23 23 22 21 19 18 16 14 14 15 15 16 16 15 14 13 12 12 12 12 12 16 18 19 20 21 22
9 5 4 10 12 13 13 13 13 12 12 15 20 23 23 24 26 26 27 29 28 29 30 31 29 27 25 24 24 24 22 21 20 20 20 19 19 19 20 20 19 18 17 16 15 15 15 15 15 14 13 13 13 13 12 11 12 14 16 18 20 22 23
11 13 10 2 8 12 13 11 11 13 12 13 20 24 24 24 26 27 28 27 26 28 29 28 26 24 22 21 21 21 20 19 20 19 17 15 14 15 16 17 17 17 17 16 15 16 17 16 14 13 14 14 13 13 13 12 12 14 16 17 20 22 22
9 10 12 14 12 9 13 12 12 14 15 16 20 23 23 24 26 26 26 26 26 28 28 26 25 23 21 20 20 19 19 19 19 17 15 14 14 15 15 13 14 15 14 12 11 13 15 14 12 14 15 14 13 13 12 12 12 14 15 15 18 20 20
9 10 10 12 13 10 10 13 15 17 19 19 21 22 23 23 23 23 24 24 25 27 29 26 24 22 21 20 19 19 19 18 17 16 15 14 16 18 16 13 12 13 13 11 8 8 9 11 13 15 14 13 13 14 13 11 11 13 13 12 13 15 17
4 2 2 3 6 2 5 13 18 19 19 20 21 21 21 21 22 22 22 23 24 27 27 25 22 21 19 18 18 18 18 17 17 16 15 14 16 19 19 17 15 13 11 10 8 8 9 12 14 15 14 13 14 15 13 9 9 12 13 12 13 13 14
5 9 10 9 7 6 8 14 18 18 18 19 20 20 20 21 21 21 21 22 23 23 23 23 21 19 18 18 20 20 18 17 18 17 15 15 16 17 17 17 17 14 11 10 9 10 11 13 13 14 14 13 12 14 13 11 10 12 14 14 15 15 14

ECMWFFLT1_925_spd_033.txt.gz
Wind_Speed
17 15 13 13 14 15 17 18 17 20 25 29 32 35 36 36 37 36 36 38 39 38 39 39 38 38 39 39 39 38 38 37 36 35 34 33 32 32 33 33 31 31 33 32 30 30 30 30 30 28 24 24 25 25 25 21 19 20 18 16 17 18 18
17 14 13 13 14 15 17 18 17 20 25 28 32 35 36 36 38 37 37 38 40 39 40 40 39 39 39 39 39 39 38 37 36 35 33 33 33 32 33 34 34 33 33 32 30 30 31 31 30 28 25 26 25 26 26 22 20 22 20 17 20 21 19
15 14 14 14 13 14 16 16 16 20 25 27 30 34 36 38 39 39 38 38 39 39 39 40 40 39 39 39 38 39 39 38 37 36 34 33 34 33 33 34 35 34 33 33 32 31 31 32 32 30 27 27 27 27 27 22 21 24 22 19 22 23 20
15 15 15 15 14 14 15 16 16 19 25 29 32 35 37 39 39 39 38 39 39 39 39 40 40 40 40 39 39 38 39 38 37 37 36 34 34 35 34 33 34 34 34 33 33 32 32 32 33 33 31 30 29 28 27 24 23 25 25 23 24 23 22
16 16 15 14 15 14 14 16 16 19 25 29 32 35 37 38 38 37 37 38 39 40 41 41 40 40 39 39 38 38 39 39 38 37 37 35 35 35 35 34 34 34 34 34 34 34 34 33 32 34 34 33 32 31 29 27 25 27 28 27 26 25 24
16 16 15 14 15 15 15 16 18 22 28 30 32 34 35 36 36 36 37 37 38 39 40 40 39 39 38 39 38 37 37 39 38 38 37 36 36 36 36 35 34 35 34 34 34 35 35 34 33 34 36 35 34 33 32 30 28 28 30 29 28 28 27
16 16 16 16 16 16 16 16 17 23 29 31 31 32 33 35 36 36 36 36 37 38 38 39 39 39 38 38 38 37 38 38 38 38 38 37 37 37 36 35 35 35 35 34 35 36 36 36 36 36 36 36 36 36 34 33 31 30 32 31 29 29 28
20 18 18 18 18 17 16 15 15 20 26 28 29 31 34 36 36 36 36 36 37 37 38 39 40 40 39 38 38 39 39 39 38 38 38 38 38 38 38 36 35 35 35 35 36 37 37 38 38 37 37 38 38 37 36 35 33 33 34 34 31 30 30
19 20 20 19 18 15 14 14 14 16 21 24 27 32 35 36 36 37 37 37 36 36 37 39 39 39 39 38 39 39 39 38 38 39 39 38 38 39 38 37 36 35 36 37 37 37 38 39 39 39 39 39 39 39 38 37 36 35 35 36 34 33 32
16 17 17 15 14 12 12 12 13 14 16 19 23 29 33 35 36 37 38 38 38 37 38 38 38 38 38 38 39 39 38 38 39 39 39 39 39 39 39 37 36 36 37 38 38 39 39 39 39 40 40 40 40 39 39 38 38 37 37 37 37 36 34
16 16 14 14 14 14 13 13 13 14 14 16 21 25 29 33 34 36 37 38 37 37 37 38 37 37 38 38 38 38 38 39 39 40 40 40 40 39 39 37 37 38 38 38 38 39 39 39 39 40 41 42 41 40 40 40 39 39 38 38 38 37 35
16 15 13 15 15 14 14 14 15 15 14 15 21 24 26 29 31 33 35 37 37 36 37 37 37 37 38 38 38 38 39 40 39 41 42 41 40 39 39 38 37 38 39 39 38 38 39 39 40 40 41 42 42 41 40 39 39 39 39 37 37 36 34
15 14 12 15 15 14 15 15 15 16 14 15 20 24 26 28 30 32 33 35 36 36 36 37 37 37 37 38 38 38 40 41 41 42 42 41 40 39 39 39 38 38 39 39 38 37 38 39 40 40 41 41 40 39 39 38 37 38 37 36 36 35 33
15 16 15 16 15 15 15 14 14 15 13 14 18 22 25 28 31 32 33 35 35 36 36 37 37 37 37 38 38 39 41 42 43 43 41 41 41 39 39 39 39 38 39 39 38 38 38 39 40 40 39 39 39 38 37 36 36 36 36 36 34 33 33
13 16 16 16 15 14 13 13 13 13 13 13 16 19 22 25 29 31 32 34 36 37 37 37 37 38 37 38 39 40 41 42 42 41 40 39 40 40 39 39 39 38 38 38 39 38 37 37 38 38 37 36 36 36 35 35 35 35 36 36 33 33 34
11 13 15 15 14 14 14 14 14 13 14 13 14 17 21 24 28 31 32 34 36 37 38 38 38 38 38 38 39 40 41 42 41 40 39 39 40 41 40 39 39 38 37 38 39 38 37 36 35 36 36 35 34 34 34 34 34 34 36 37 36 35 36
11 11 11 12 12 11 11 12 12 12 13 14 15 19 22 25 28 31 32 33 36 37 38 39 39 39 39 39 40 40 41 41 40 39 39 40 40 40 40 38 37 37 36 36 38 38 37 35 34 35 35 34 34 34 34 34 34 34 36 39 39 38 37
13 13 12 12 13 14 14 14 14 14 15 15 17 22 25 26 28 29 31 34 37 38 38 38 39 39 39 39 39 40 41 41 40 39 39 39 39 39 39 37 35 35 35 35 36 37 36 35 34 34 34 33 33 34 35 35 35 36 37 39 40 39 37
12 15 16 16 16 17 17 16 15 16 17 17 19 25 30 30 29 30 34 37 38 38 37 37 38 39 39 39 40 40 41 41 40 39 39 39 38 37 36 35 34 34 35 34 34 35 35 34 32 32 32 33 34 34 35 35 34 36 37 39 40 40 37
10 11 14 16 17 17 15 14 13 15 18 22 27 33 35 35 35 36 38 37 36 38 38 37 37 38 39 40 40 41 41 40 39 38 38 37 36 34 34 35 34 33 33 32 31 33 33 31 30 30 32 33 34 35 35 34 34 36 37 39 40 40 38
7 8 9 12 14 15 15 15 14 13 16 23 30 32 32 33 35 35 35 35 35 38 39 38 36 38 39 40 40 40 40 39 38 36 35 35 34 33 32 33 33 31 30 29 29 29 31 30 29 28 30 32 33 34 34 33 35 36 37 39 39 39 38
7 6 8 11 13 15 15 16 17 17 20 25 28 28 29 32 34 32 32 34 35 37 38 36 35 37 38 39 39 39 39 39 36 34 34 33 33 32 32 32 31 29 29 27 25 25 26 27 28 27 27 29 31 31 32 33 35 36 37 38 37 37 37
7 6 6 9 12 13 14 16 19 22 25 27 26 27 29 32 33 31 31 32 33 33 35 33 33 35 38 38 39 39 38 38 36 34 33 33 32 31 30 30 29 28 28 26 24 22 22 23 24 24 24 26 28 30 31 31 33 34 35 35 34 34 35
8 8 7 8 11 12 14 18 20 22 24 25 26 30 33 33 33 31 29 30 31 31 31 31 31 35 37 37 38 38 38 37 36 35 33 33 32 30 28 28 28 28 28 27 24 22 21 21 21 20 21 23 25 28 29 28 29 30 31 30 31 33 34
10 9 9 8 10 13 16 23 27 27 26 24 26 31 34 33 34 32 29 30 32 31 29 30 32 34 37 38 38 37 37 37 36 35 34 32 31 29 28 28 28 28 28 27 25 23 21 20 19 19 19 20 22 24 25 26 26 26 27 27 28 31 35
9 9 9 8 9 14 21 26 24 21 22 24 29 34 35 35 34 30 29 32 31 30 30 33 34 35 36 36 36 36 37 37 36 35 34 33 31 30 30 29 28 28 27 26 25 23 21 20 20 19 19 19 19 20 21 22 23 24 25 25 26 31 34
5 4 4 6 8 8 13 21 23 22 25 30 34 36 36 36 32 28 29 30 28 29 35 36 34 34 35 35 35 36 36 36 36 36 35 34 33 32 30 29 28 27 27 25 24 23 22 22 22 22 21 19 18 18 18 19 21 23 24 24 26 31 33
9 6 3 4 8 11 6 9 18 23 28 33 36 37 37 35 31 27 27 26 26 31 35 34 33 34 34 35 35 35 35 35 36 36 35 34 35 33 31 29 28 28 27 26 25 25 25 25 25 24 22 20 18 17 17 18 19 20 22 24 25 29 32
15 14 11 8 9 11 11 6 6 15 26 32 33 35 37 34 28 25 24 23 27 31 32 32 34 35 34 34 35 34 34 35 36 35 34 35 35 34 31 30 30 29 28 27 26 26 26 25 25 24 22 20 17 15 16 16 16 17 19 23 25 27 29
15 15 13 12 13 18 18 12 11 10 12 24 26 26 29 28 23 20 20 21 26 30 31 32 34 34 32 33 33 32 33 34 34 33 33 34 34 33 32 31 30 29 27 26 26 25 23 22 21 21 21 20 18 15 14 15 16 17 18 21 22 24 25
12 12 12 11 13 19 21 18 21 27 20 8 19 22 23 24 22 18 18 23 29 31 32 33 33 32 31 31 31 32 32 32 32 32 32 33 34 33 31 30 29 27 25 25 23 21 20 19 18 19 19 19 16 14 13 14 15 17 19 20 21 22 23
12 12 13 13 13 14 17 19 21 23 25 16 3 14 16 20 23 21 21 27 32 33 33 34 32 31 30 30 31 32 33 31 30 31 30 30 31 31 30 29 27 25 23 22 20 18 18 18 18 17 16 16 14 14 14 14 16 18 21 22 23 23 24
12 11 11 13 15 13 10 11 13 13 14 20 17 12 12 9 9 16 23 29 32 34 35 34 33 31 31 31 31 31 32 31 30 30 29 29 29 29 28 27 25 24 22 20 19 19 19 19 20 18 15 15 16 17 17 17 17 19 21 24 25 25 26
11 11 12 15 19 18 9 7 9 10 8 11 17 15 18 18 11 7 17 26 33 37 37 35 34 33 31 32 31 30 31 32 31 30 29 28 28 28 26 25 25 24 22 21 21 21 20 20 19 18 16 17 20 20 18 17 18 20 21 24 26 26 26
9 10 12 15 19 19 14 7 8 9 10 10 7 8 17 23 17 11 12 17 27 35 35 33 34 33 32 31 30 30 31 31 31 31 31 30 29 27 25 24 25 24 23 23 22 21 20 19 19 18 17 18 20 21 19 19 20 22 22 22 23 24 24
7 8 11 15 17 18 17 12 8 7 8 12 12 9 12 21 24 20 16 15 20 29 32 30 29 29 30 30 29 29 30 30 30 31 32 32 30 28 24 22 23 23 23 22 21 20 19 18 17 17 17 19 19 19 18 19 20 20 20 20 19 20 20
9 8 10 13 13 13 15 15 13 10 8 8 11 11 12 18 25 26 21 18 21 27 30 28 26 25 25 26 26 27 28 28 29 30 30 30 30 29 26 23 19 18 18 17 16 16 16 15 14 16 18 20 20 18 18 18 16 14 16 16 15 16 17
13 12 9 10 12 11 13 15 13 12 9 4 7 13 15 20 24 25 23 22 23 25 27 28 27 24 24 25 26 27 28 27 28 29 29 28 28 29 28 26 22 18 16 15 14 14 14 14 14 16 17 17 18 19 20 18 14 13 15 15 13 13 14